#Datum;Uhrzeit;WR;Pac;DaySum;Status;WR;Pac;DaySum;Status;Pdc1;Udc;Temp;WR;Pac;DaySum;Status;Pdc1;Udc;Temp;WR;Pac;DaySum;Status;Pdc1;Udc;Temp;WR;Pac;DaySum;Status;Pdc1;Pdc2;Udc1;Udc2;Temp;WR;Pac;DaySum;Status;Pdc1;Pdc2;Udc1;Udc2;Temp;WR;Pac;DaySum;Status;Pdc1;Udc;Temp;WR;Pac;DaySum;Status;Pdc1;Udc;Temp;WR;Pac;DaySum;Status;Pdc1;Udc;Temp
29.11.17;23:55:00;1;422;9630;0;2;0;2433;0;0;0;0;3;0;1461;0;0;0;0;4;0;1985;0;0;0;0;5;0;5283;0;0;0;0;0;0;6;0;3873;0;0;0;0;0;0;7;0;2603;0;0;0;0;8;0;2625;0;0;0;0;9;0;1375;0;0;0;0
29.11.17;23:50:00;1;191;9585;0;2;0;2433;0;0;0;0;3;0;1461;0;0;0;0;4;0;1985;0;0;0;0;5;0;5283;0;0;0;0;0;0;6;0;3873;0;0;0;0;0;0;7;0;2603;0;0;0;0;8;0;2625;0;0;0;0;9;0;1375;0;0;0;0
29.11.17;23:45:00;1;190;9569;0;2;0;2433;0;0;0;0;3;0;1461;0;0;0;0;4;0;1985;0;0;0;0;5;0;5283;0;0;0;0;0;0;6;0;3873;0;0;0;0;0;0;7;0;2603;0;0;0;0;8;0;2625;0;0;0;0;9;0;1375;0;0;0;0
29.11.17;23:40:00;1;240;9553;0;2;0;2433;0;0;0;0;3;0;1461;0;0;0;0;4;0;1985;0;0;0;0;5;0;5283;0;0;0;0;0;0;6;0;3873;0;0;0;0;0;0;7;0;2603;0;0;0;0;8;0;2625;0;0;0;0;9;0;1375;0;0;0;0
29.11.17;23:35:00;1;683;9531;0;2;0;2433;0;0;0;0;3;0;1461;0;0;0;0;4;0;1985;0;0;0;0;5;0;5283;0;0;0;0;0;0;6;0;3873;0;0;0;0;0;0;7;0;2603;0;0;0;0;8;0;2625;0;0;0;0;9;0;1375;0;0;0;0
29.11.17;23:30:00;1;260;9487;0;2;0;2433;0;0;0;0;3;0;1461;0;0;0;0;4;0;1985;0;0;0;0;5;0;5283;0;0;0;0;0;0;6;0;3873;0;0;0;0;0;0;7;0;2603;0;0;0;0;8;0;2625;0;0;0;0;9;0;1375;0;0;0;0
29.11.17;23:25:00;1;262;9465;0;2;0;2433;0;0;0;0;3;0;1461;0;0;0;0;4;0;1985;0;0;0;0;5;0;5283;0;0;0;0;0;0;6;0;3873;0;0;0;0;0;0;7;0;2603;0;0;0;0;8;0;2625;0;0;0;0;9;0;1375;0;0;0;0
29.11.17;23:20:00;1;634;9443;0;2;0;2433;0;0;0;0;3;0;1461;0;0;0;0;4;0;1985;0;0;0;0;5;0;5283;0;0;0;0;0;0;6;0;3873;0;0;0;0;0;0;7;0;2603;0;0;0;0;8;0;2625;0;0;0;0;9;0;1375;0;0;0;0
29.11.17;23:15:00;1;259;9396;0;2;0;2433;0;0;0;0;3;0;1461;0;0;0;0;4;0;1985;0;0;0;0;5;0;5283;0;0;0;0;0;0;6;0;3873;0;0;0;0;0;0;7;0;2603;0;0;0;0;8;0;2625;0;0;0;0;9;0;1375;0;0;0;0
29.11.17;23:10:00;1;265;9374;0;2;0;2433;0;0;0;0;3;0;1461;0;0;0;0;4;0;1985;0;0;0;0;5;0;5283;0;0;0;0;0;0;6;0;3873;0;0;0;0;0;0;7;0;2603;0;0;0;0;8;0;2625;0;0;0;0;9;0;1375;0;0;0;0
29.11.17;23:05:00;1;732;9352;0;2;0;2433;0;0;0;0;3;0;1461;0;0;0;0;4;0;1985;0;0;0;0;5;0;5283;0;0;0;0;0;0;6;0;3873;0;0;0;0;0;0;7;0;2603;0;0;0;0;8;0;2625;0;0;0;0;9;0;1375;0;0;0;0
29.11.17;23:00:00;1;232;9301;0;2;0;2433;0;0;0;0;3;0;1461;0;0;0;0;4;0;1985;0;0;0;0;5;0;5283;0;0;0;0;0;0;6;0;3873;0;0;0;0;0;0;7;0;2603;0;0;0;0;8;0;2625;0;0;0;0;9;0;1375;0;0;0;0
29.11.17;22:55:00;1;228;9282;0;2;0;2433;0;0;0;0;3;0;1461;0;0;0;0;4;0;1985;0;0;0;0;5;0;5283;2;0;0;0;0;0;6;0;3873;2;0;0;0;0;0;7;0;2603;0;0;0;0;8;0;2625;0;0;0;0;9;0;1375;0;0;0;0
29.11.17;22:50:00;1;562;9262;0;2;0;2433;0;0;0;0;3;0;1461;0;0;0;0;4;0;1985;0;0;0;0;5;0;5283;2;0;0;0;0;0;6;0;3873;2;0;0;0;0;0;7;0;2603;0;0;0;0;8;0;2625;0;0;0;0;9;0;1375;0;0;0;0
29.11.17;22:45:00;1;190;9221;0;2;0;2433;0;0;0;0;3;0;1461;0;0;0;0;4;0;1985;0;0;0;0;5;0;5283;2;0;0;0;0;0;6;0;3873;2;0;0;0;0;0;7;0;2603;0;0;0;0;8;0;2625;0;0;0;0;9;0;1375;0;0;0;0
29.11.17;22:40:00;1;189;9205;0;2;0;2433;0;0;0;0;3;0;1461;0;0;0;0;4;0;1985;0;0;0;0;5;0;5283;2;0;0;0;0;0;6;0;3873;2;0;0;0;0;0;7;0;2603;0;0;0;0;8;0;2625;0;0;0;0;9;0;1375;0;0;0;0
29.11.17;22:35:00;1;354;9189;0;2;0;2433;0;0;0;0;3;0;1461;0;0;0;0;4;0;1985;0;0;0;0;5;0;5283;2;0;0;0;0;0;6;0;3873;2;0;0;0;0;0;7;0;2603;0;0;0;0;8;0;2625;0;0;0;0;9;0;1375;0;0;0;0
29.11.17;22:30:00;1;478;9148;0;2;0;2433;0;0;0;0;3;0;1461;0;0;0;0;4;0;1985;0;0;0;0;5;0;5283;2;0;0;0;0;0;6;0;3873;2;0;0;0;0;0;7;0;2603;0;0;0;0;8;0;2625;0;0;0;0;9;0;1375;0;0;0;0
29.11.17;22:25:00;1;233;9126;0;2;0;2433;0;0;0;0;3;0;1461;0;0;0;0;4;0;1985;0;0;0;0;5;0;5283;2;0;0;0;0;0;6;0;3873;2;0;0;0;0;0;7;0;2603;0;0;0;0;8;0;2625;0;0;0;0;9;0;1375;0;0;0;0
29.11.17;22:20:00;1;355;9107;0;2;0;2433;0;0;0;0;3;0;1461;0;0;0;0;4;0;1985;0;0;0;0;5;0;5283;2;0;0;0;0;0;6;0;3873;2;0;0;0;0;0;7;0;2603;0;0;0;0;8;0;2625;0;0;0;0;9;0;1375;0;0;0;0
29.11.17;22:15:00;1;371;9068;0;2;0;2433;0;0;0;0;3;0;1461;0;0;0;0;4;0;1985;0;0;0;0;5;0;5283;2;0;0;0;0;0;6;0;3873;2;0;0;0;0;0;7;0;2603;0;0;0;0;8;0;2625;0;0;0;0;9;0;1375;0;0;0;0
29.11.17;22:10:00;1;265;9041;0;2;0;2433;0;0;0;0;3;0;1461;0;0;0;0;4;0;1985;0;0;0;0;5;0;5283;2;0;0;0;0;0;6;0;3873;2;0;0;0;0;0;7;0;2603;0;0;0;0;8;0;2625;0;0;0;0;9;0;1375;0;0;0;0
29.11.17;22:05:00;1;280;9019;0;2;0;2433;0;0;0;0;3;0;1461;0;0;0;0;4;0;1985;0;0;0;0;5;0;5283;2;0;0;0;0;0;6;0;3873;2;0;0;0;0;0;7;0;2603;0;0;0;0;8;0;2625;0;0;0;0;9;0;1375;0;0;0;0
29.11.17;22:00:00;1;683;8992;0;2;0;2433;0;0;0;0;3;0;1461;0;0;0;0;4;0;1985;0;0;0;0;5;0;5283;2;0;0;0;0;0;6;0;3873;2;0;0;0;0;0;7;0;2603;0;0;0;0;8;0;2625;0;0;0;0;9;0;1375;0;0;0;0
29.11.17;21:55:00;1;202;8946;0;2;0;2433;0;0;0;0;3;0;1461;0;0;0;0;4;0;1985;0;0;0;0;5;0;5283;2;0;0;0;0;0;6;0;3873;2;0;0;0;0;0;7;0;2603;0;0;0;0;8;0;2625;0;0;0;0;9;0;1375;0;0;0;0
29.11.17;21:50:00;1;196;8929;0;2;0;2433;0;0;0;0;3;0;1461;0;0;0;0;4;0;1985;0;0;0;0;5;0;5283;2;0;0;0;0;0;6;0;3873;2;0;0;0;0;0;7;0;2603;0;0;0;0;8;0;2625;0;0;0;0;9;0;1375;0;0;0;0
29.11.17;21:45:00;1;754;8913;0;2;0;2433;0;0;0;0;3;0;1461;0;0;0;0;4;0;1985;0;0;0;0;5;0;5283;2;0;0;0;0;0;6;0;3873;2;0;0;0;0;0;7;0;2603;0;0;0;0;8;0;2625;0;0;0;0;9;0;1375;0;0;0;0
29.11.17;21:40:00;1;207;8870;0;2;0;2433;0;0;0;0;3;0;1461;0;0;0;0;4;0;1985;0;0;0;0;5;0;5283;2;0;0;0;0;0;6;0;3873;2;0;0;0;0;0;7;0;2603;0;0;0;0;8;0;2625;0;0;0;0;9;0;1375;0;0;0;0
29.11.17;21:35:00;1;197;8853;0;2;0;2433;0;0;0;0;3;0;1461;0;0;0;0;4;0;1985;0;0;0;0;5;0;5283;2;0;0;0;0;0;6;0;3873;2;0;0;0;0;0;7;0;2603;0;0;0;0;8;0;2625;0;0;0;0;9;0;1375;0;0;0;0
29.11.17;21:30:00;1;503;8837;0;2;0;2433;0;0;0;0;3;0;1461;0;0;0;0;4;0;1985;0;0;0;0;5;0;5283;2;0;0;0;0;0;6;0;3873;2;0;0;0;0;0;7;0;2603;0;0;0;0;8;0;2625;0;0;0;0;9;0;1375;0;0;0;0
29.11.17;21:25:00;1;245;8794;0;2;0;2433;0;0;0;0;3;0;1461;0;0;0;0;4;0;1985;0;0;0;0;5;0;5283;2;0;0;0;0;0;6;0;3873;2;0;0;0;0;0;7;0;2603;0;0;0;0;8;0;2625;0;0;0;0;9;0;1375;0;0;0;0
29.11.17;21:20:00;1;262;8773;0;2;0;2433;0;0;0;0;3;0;1461;0;0;0;0;4;0;1985;0;0;0;0;5;0;5283;2;0;0;0;0;0;6;0;3873;2;0;0;0;0;0;7;0;2603;0;0;0;0;8;0;2625;0;0;0;0;9;0;1375;0;0;0;0
29.11.17;21:15:00;1;418;8751;0;2;0;2433;0;0;0;0;3;0;1461;0;0;0;0;4;0;1985;0;0;0;0;5;0;5283;2;0;0;0;0;0;6;0;3873;2;0;0;0;0;0;7;0;2603;0;0;0;0;8;0;2625;0;0;0;0;9;0;1375;0;0;0;0
29.11.17;21:10:00;1;305;8703;0;2;0;2433;0;0;0;0;3;0;1461;0;0;0;0;4;0;1985;0;0;0;0;5;0;5283;2;0;0;0;0;0;6;0;3873;2;0;0;0;0;0;7;0;2603;0;0;0;0;8;0;2625;0;0;0;0;9;0;1375;0;0;0;0
29.11.17;21:05:00;1;307;8677;0;2;0;2433;0;0;0;0;3;0;1461;0;0;0;0;4;0;1985;0;0;0;0;5;0;5283;2;0;0;0;0;0;6;0;3873;2;0;0;0;0;0;7;0;2603;0;0;0;0;8;0;2625;0;0;0;0;9;0;1375;0;0;0;0
29.11.17;21:00:00;1;307;8651;0;2;0;2433;0;0;0;0;3;0;1461;0;0;0;0;4;0;1985;0;0;0;0;5;0;5283;2;0;0;0;0;0;6;0;3873;2;0;0;0;0;0;7;0;2603;0;0;0;0;8;0;2625;0;0;0;0;9;0;1375;0;0;0;0
29.11.17;20:55:00;1;406;8615;0;2;0;2433;0;0;0;0;3;0;1461;0;0;0;0;4;0;1985;0;0;0;0;5;0;5283;2;0;0;0;0;0;6;0;3873;2;0;0;0;0;0;7;0;2603;0;0;0;0;8;0;2625;0;0;0;0;9;0;1375;0;0;0;0
29.11.17;20:50:00;1;267;8578;0;2;0;2433;0;0;0;0;3;0;1461;0;0;0;0;4;0;1985;0;0;0;0;5;0;5283;2;0;0;0;0;0;6;0;3873;2;0;0;0;0;0;7;0;2603;0;0;0;0;8;0;2625;0;0;0;0;9;0;1375;0;0;0;0
29.11.17;20:45:00;1;208;8556;0;2;0;2433;0;0;0;0;3;0;1461;0;0;0;0;4;0;1985;0;0;0;0;5;0;5283;2;0;0;0;0;0;6;0;3873;2;0;0;0;0;0;7;0;2603;0;0;0;0;8;0;2625;0;0;0;0;9;0;1375;0;0;0;0
29.11.17;20:40:00;1;624;8539;0;2;0;2433;0;0;0;0;3;0;1461;0;0;0;0;4;0;1985;0;0;0;0;5;0;5283;2;0;0;0;0;0;6;0;3873;2;0;0;0;0;0;7;0;2603;0;0;0;0;8;0;2625;0;0;0;0;9;0;1375;0;0;0;0
29.11.17;20:35:00;1;196;8496;0;2;0;2433;0;0;0;0;3;0;1461;0;0;0;0;4;0;1985;0;0;0;0;5;0;5283;2;0;0;0;0;0;6;0;3873;2;0;0;0;0;0;7;0;2603;0;0;0;0;8;0;2625;0;0;0;0;9;0;1375;0;0;0;0
29.11.17;20:30:00;1;196;8480;0;2;0;2433;0;0;0;0;3;0;1461;0;0;0;0;4;0;1985;0;0;0;0;5;0;5283;2;0;0;0;0;0;6;0;3873;2;0;0;0;0;0;7;0;2603;0;0;0;0;8;0;2625;0;0;0;0;9;0;1375;0;0;0;0
29.11.17;20:25:00;1;623;8463;0;2;0;2433;0;0;0;0;3;0;1461;0;0;0;0;4;0;1985;0;0;0;0;5;0;5283;2;0;0;0;0;0;6;0;3873;2;0;0;0;0;0;7;0;2603;0;0;0;0;8;0;2625;0;0;0;0;9;0;1375;0;0;0;0
29.11.17;20:20:00;1;196;8421;0;2;0;2433;0;0;0;0;3;0;1461;0;0;0;0;4;0;1985;0;0;0;0;5;0;5283;2;0;0;0;0;0;6;0;3873;2;0;0;0;0;0;7;0;2603;0;0;0;0;8;0;2625;0;0;0;0;9;0;1375;0;0;0;0
29.11.17;20:15:00;1;221;8405;0;2;0;2433;0;0;0;0;3;0;1461;0;0;0;0;4;0;1985;0;0;0;0;5;0;5283;2;0;0;0;0;0;6;0;3873;2;0;0;0;0;0;7;0;2603;0;0;0;0;8;0;2625;0;0;0;0;9;0;1375;0;0;0;0
29.11.17;20:10:00;1;616;8386;0;2;0;2433;0;0;0;0;3;0;1461;0;0;0;0;4;0;1985;0;0;0;0;5;0;5283;2;0;0;0;0;0;6;0;3873;2;0;0;0;0;0;7;0;2603;0;0;0;0;8;0;2625;0;0;0;0;9;0;1375;0;0;0;0
29.11.17;20:05:00;1;276;8339;0;2;0;2433;0;0;0;0;3;0;1461;0;0;0;0;4;0;1985;0;0;0;0;5;0;5283;2;0;0;0;0;0;6;0;3873;2;0;0;0;0;0;7;0;2603;0;0;0;0;8;0;2625;0;0;0;0;9;0;1375;0;0;0;0
29.11.17;20:00:00;1;232;8316;0;2;0;2433;0;0;0;0;3;0;1461;0;0;0;0;4;0;1985;0;0;0;0;5;0;5283;2;0;0;0;0;0;6;0;3873;2;0;0;0;0;0;7;0;2603;0;0;0;0;8;0;2625;0;0;0;0;9;0;1375;0;0;0;0
29.11.17;19:55:00;1;354;8298;0;2;0;2433;0;0;0;0;3;0;1461;0;0;0;0;4;0;1985;0;0;0;0;5;0;5283;2;0;0;0;0;0;6;0;3873;2;0;0;0;0;0;7;0;2603;0;0;0;0;8;0;2625;0;0;0;0;9;0;1375;0;0;0;0
29.11.17;19:50:00;1;571;8260;0;2;0;2433;0;0;0;0;3;0;1461;0;0;0;0;4;0;1985;0;0;0;0;5;0;5283;2;0;0;0;0;0;6;0;3873;2;0;0;0;0;0;7;0;2603;0;0;0;0;8;0;2625;0;0;0;0;9;0;1375;0;0;0;0
29.11.17;19:45:00;1;194;8226;0;2;0;2433;0;0;0;0;3;0;1461;0;0;0;0;4;0;1985;0;0;0;0;5;0;5283;2;0;0;0;0;0;6;0;3873;2;0;0;0;0;0;7;0;2603;0;0;0;0;8;0;2625;0;0;0;0;9;0;1375;0;0;0;0
29.11.17;19:40:00;1;194;8209;0;2;0;2433;0;0;0;0;3;0;1461;0;0;0;0;4;0;1985;0;0;0;0;5;0;5283;2;0;0;0;0;0;6;0;3873;2;0;0;0;0;0;7;0;2603;0;0;0;0;8;0;2625;0;0;0;0;9;0;1375;0;0;0;0
29.11.17;19:35:00;1;615;8192;0;2;0;2433;0;0;0;0;3;0;1461;0;0;0;0;4;0;1985;0;0;0;0;5;0;5283;2;0;0;0;0;0;6;0;3873;2;0;0;0;0;0;7;0;2603;0;0;0;0;8;0;2625;0;0;0;0;9;0;1375;0;0;0;0
29.11.17;19:30:00;1;194;8152;0;2;0;2433;0;0;0;0;3;0;1461;0;0;0;0;4;0;1985;0;0;0;0;5;0;5283;2;0;0;0;0;0;6;0;3873;2;0;0;0;0;0;7;0;2603;0;0;0;0;8;0;2625;0;0;0;0;9;0;1375;0;0;0;0
29.11.17;19:25:00;1;194;8136;0;2;0;2433;0;0;0;0;3;0;1461;0;0;0;0;4;0;1985;0;0;0;0;5;0;5283;2;0;0;0;0;0;6;0;3873;2;0;0;0;0;0;7;0;2603;0;0;0;0;8;0;2625;0;0;0;0;9;0;1375;0;0;0;0
29.11.17;19:20:00;1;365;8120;0;2;0;2433;0;0;0;0;3;0;1461;0;0;0;0;4;0;1985;0;0;0;0;5;0;5283;2;0;0;0;0;0;6;0;3873;2;0;0;0;0;0;7;0;2603;0;0;0;0;8;0;2625;0;0;0;0;9;0;1375;0;0;0;0
29.11.17;19:15:00;1;235;8077;0;2;0;2433;0;0;0;0;3;0;1461;0;0;0;0;4;0;1985;0;0;0;0;5;0;5283;2;0;0;0;0;0;6;0;3873;2;0;0;0;0;0;7;0;2603;0;0;0;0;8;0;2625;0;0;0;0;9;0;1375;0;0;0;0
29.11.17;19:10:00;1;237;8058;0;2;0;2433;0;0;0;0;3;0;1461;0;0;0;0;4;0;1985;0;0;0;0;5;0;5283;2;0;0;0;0;0;6;0;3873;2;0;0;0;0;0;7;0;2603;0;0;0;0;8;0;2625;0;0;0;0;9;0;1375;0;0;0;0
29.11.17;19:05:00;1;714;8038;0;2;0;2433;0;0;0;0;3;0;1461;0;0;0;0;4;0;1985;0;0;0;0;5;0;5283;2;0;0;0;0;0;6;0;3873;2;0;0;0;0;0;7;0;2603;0;0;0;0;8;0;2625;0;0;0;0;9;0;1375;0;0;0;0
29.11.17;19:00:00;1;263;7988;0;2;0;2433;0;0;0;0;3;0;1461;0;0;0;0;4;0;1985;0;0;0;0;5;0;5283;2;0;0;0;0;0;6;0;3873;2;0;0;0;0;0;7;0;2603;0;0;0;0;8;0;2625;0;0;0;0;9;0;1375;0;0;0;0
29.11.17;18:55:00;1;263;7966;0;2;0;2433;0;0;0;0;3;0;1461;0;0;0;0;4;0;1985;0;0;0;0;5;0;5283;2;0;0;0;0;0;6;0;3873;2;0;0;0;0;0;7;0;2603;0;0;0;0;8;0;2625;0;0;0;0;9;0;1375;0;0;0;0
29.11.17;18:50:00;1;407;7944;0;2;0;2433;0;0;0;0;3;0;1461;0;0;0;0;4;0;1985;0;0;0;0;5;0;5283;2;0;0;0;0;0;6;0;3873;2;0;0;0;0;0;7;0;2603;0;0;0;0;8;0;2625;0;0;0;0;9;0;1375;0;0;0;0
29.11.17;18:45:00;1;264;7898;0;2;0;2433;0;0;0;0;3;0;1461;0;0;0;0;4;0;1985;0;0;0;0;5;0;5283;2;0;0;0;0;0;6;0;3873;2;0;0;0;0;0;7;0;2603;0;0;0;0;8;0;2625;0;0;0;0;9;0;1375;0;0;0;0
29.11.17;18:40:00;1;264;7876;0;2;0;2433;0;0;0;0;3;0;1461;0;0;0;0;4;0;1985;0;0;0;0;5;0;5283;2;0;0;0;0;0;6;0;3873;2;0;0;0;0;0;7;0;2603;0;0;0;0;8;0;2625;0;0;0;0;9;0;1375;0;0;0;0
29.11.17;18:35:00;1;262;7854;0;2;0;2433;0;0;0;0;3;0;1461;0;0;0;0;4;0;1985;0;0;0;0;5;0;5283;2;0;0;0;0;0;6;0;3873;2;0;0;0;0;0;7;0;2603;0;0;0;0;8;0;2625;0;0;0;0;9;0;1375;0;0;0;0
29.11.17;18:30:00;1;512;7822;0;2;0;2433;0;0;0;0;3;0;1461;0;0;0;0;4;0;1985;0;0;0;0;5;0;5283;2;0;0;0;0;0;6;0;3873;2;0;0;0;0;0;7;0;2603;0;0;0;0;8;0;2625;0;0;0;0;9;0;1375;0;0;0;0
29.11.17;18:25:00;1;194;7784;0;2;0;2433;0;0;0;0;3;0;1461;0;0;0;0;4;0;1985;0;0;0;0;5;0;5283;2;0;0;0;0;0;6;0;3873;2;0;0;0;0;0;7;0;2603;0;0;0;0;8;0;2625;0;0;0;0;9;0;1375;0;0;0;0
29.11.17;18:20:00;1;226;7767;0;2;0;2433;0;0;0;0;3;0;1461;0;0;0;0;4;0;1985;0;0;0;0;5;0;5283;2;0;0;0;0;0;6;0;3873;2;0;0;0;0;0;7;0;2603;0;0;0;0;8;0;2625;0;0;0;0;9;0;1375;0;0;0;0
29.11.17;18:15:00;1;520;7748;0;2;0;2433;0;0;0;0;3;0;1461;0;0;0;0;4;0;1985;0;0;0;0;5;0;5283;2;0;0;0;0;0;6;0;3873;2;0;0;0;0;0;7;0;2603;0;0;0;0;8;0;2625;0;0;0;0;9;0;1375;0;0;0;0
29.11.17;18:10:00;1;240;7704;0;2;0;2433;0;0;0;0;3;0;1461;0;0;0;0;4;0;1985;0;0;0;0;5;0;5283;2;0;0;0;0;0;6;0;3873;2;0;0;0;0;0;7;0;2603;0;0;0;0;8;0;2625;0;0;0;0;9;0;1375;0;0;0;0
29.11.17;18:05:00;1;211;7684;0;2;0;2433;0;0;0;0;3;0;1461;0;0;0;0;4;0;1985;0;0;0;0;5;0;5283;2;0;0;0;0;0;6;0;3873;2;0;0;0;0;0;7;0;2603;0;0;0;0;8;0;2625;0;0;0;0;9;0;1375;0;0;0;0
29.11.17;18:00:00;1;442;7666;0;2;0;2433;0;0;0;0;3;0;1461;0;0;0;0;4;0;1985;0;0;0;0;5;0;5283;2;0;0;0;0;0;6;0;3873;2;0;0;0;0;0;7;0;2603;0;0;0;0;8;0;2625;0;0;0;0;9;0;1375;0;0;0;0
29.11.17;17:55:00;1;194;7625;0;2;0;2433;0;0;0;0;3;0;1461;0;0;0;0;4;0;1985;0;0;0;0;5;0;5283;2;0;0;0;0;0;6;0;3873;2;0;0;0;0;0;7;0;2603;0;0;0;0;8;0;2625;0;0;0;0;9;0;1375;0;0;0;0
29.11.17;17:50:00;1;194;7608;0;2;0;2433;0;0;0;0;3;0;1461;0;0;0;0;4;0;1985;0;0;0;0;5;0;5283;2;0;0;0;0;0;6;0;3873;2;0;0;0;0;0;7;0;2603;0;0;0;0;8;0;2625;0;0;0;0;9;0;1375;0;0;0;0
29.11.17;17:45:00;1;485;7592;0;2;0;2433;0;0;0;0;3;0;1461;0;0;0;0;4;0;1985;0;0;0;0;5;0;5283;2;0;0;0;0;0;6;0;3873;2;0;0;0;0;0;7;0;2603;0;0;0;0;8;0;2625;0;0;0;0;9;0;1375;0;0;0;0
29.11.17;17:40:00;1;197;7552;0;2;0;2433;0;0;0;0;3;0;1461;0;0;0;0;4;0;1985;0;0;0;0;5;0;5283;2;0;0;0;0;0;6;0;3873;2;0;0;0;0;0;7;0;2603;0;0;0;0;8;0;2625;0;0;0;0;9;0;1375;0;0;0;0
29.11.17;17:35:00;1;196;7535;0;2;0;2433;0;0;0;0;3;0;1461;0;0;0;0;4;0;1985;0;0;0;0;5;0;5283;2;0;0;0;0;0;6;0;3873;2;0;0;0;0;0;7;0;2603;0;0;0;0;8;0;2625;0;0;0;0;9;0;1375;0;0;0;0
29.11.17;17:30:00;1;196;7519;0;2;0;2433;0;0;0;0;3;0;1461;0;0;0;0;4;0;1985;0;0;0;0;5;0;5283;2;0;0;0;0;0;6;0;3873;2;0;0;0;0;0;7;0;2603;0;0;0;0;8;0;2625;0;0;0;0;9;0;1375;0;0;0;0
29.11.17;17:25:00;1;348;7493;0;2;0;2433;0;0;0;0;3;0;1461;0;0;0;0;4;0;1985;0;0;0;0;5;0;5283;2;0;0;0;0;0;6;0;3873;2;0;0;0;0;0;7;0;2603;0;0;0;0;8;0;2625;0;0;0;0;9;0;1375;0;0;0;0
29.11.17;17:20:00;1;238;7461;0;2;0;2433;0;0;0;0;3;0;1461;0;0;0;0;4;0;1985;0;0;0;0;5;0;5283;2;0;0;0;0;0;6;0;3873;2;0;0;0;0;0;7;0;2603;0;0;0;0;8;0;2625;0;0;0;0;9;0;1375;0;0;0;0
29.11.17;17:15:00;1;239;7441;0;2;0;2433;0;0;0;0;3;0;1461;0;0;0;0;4;0;1985;0;0;0;0;5;0;5283;2;0;0;0;0;0;6;0;3873;2;0;0;0;0;0;7;0;2603;0;0;0;0;8;0;2625;0;0;0;0;9;0;1375;0;0;0;0
29.11.17;17:10:00;1;668;7421;0;2;0;2433;0;0;0;0;3;0;1461;0;0;0;0;4;0;1985;0;0;0;0;5;0;5283;2;0;0;0;0;0;6;0;3873;2;0;0;0;0;0;7;0;2603;0;0;0;0;8;0;2625;0;0;0;0;9;0;1375;0;0;0;0
29.11.17;17:05:00;1;196;7376;0;2;0;2433;0;0;0;0;3;0;1461;0;0;0;0;4;0;1985;0;0;0;0;5;0;5283;2;0;0;0;0;0;6;0;3873;2;0;0;0;0;0;7;0;2603;0;0;0;0;8;0;2625;0;0;0;0;9;0;1375;0;0;0;0
29.11.17;17:00:00;1;195;7360;0;2;0;2433;0;0;0;0;3;0;1461;0;0;0;0;4;0;1985;0;0;0;0;5;0;5283;2;0;0;0;0;0;6;0;3873;2;0;0;0;0;0;7;0;2603;0;0;0;0;8;0;2625;0;0;0;0;9;0;1375;0;0;0;0
29.11.17;16:55:00;1;479;7344;0;2;0;2433;0;0;0;0;3;0;1461;0;0;0;0;4;0;1985;0;0;0;0;5;0;5283;2;0;0;0;0;0;6;0;3873;2;0;0;0;0;0;7;0;2603;0;0;0;0;8;0;2625;0;0;0;0;9;0;1375;0;0;0;0
29.11.17;16:50:00;1;205;7302;0;2;0;2433;0;0;0;0;3;0;1461;0;0;0;0;4;0;1985;0;0;0;0;5;0;5283;2;0;0;0;0;0;6;0;3873;2;0;0;0;0;0;7;0;2603;0;0;0;0;8;0;2625;0;0;0;0;9;0;1375;0;0;0;0
29.11.17;16:45:00;1;260;7284;0;2;0;2433;0;0;0;0;3;0;1461;0;0;0;0;4;0;1985;0;0;0;0;5;0;5283;2;0;0;0;0;0;6;0;3873;2;0;0;0;0;0;7;0;2603;0;0;0;0;8;0;2625;0;0;0;0;9;0;1375;0;0;0;0
29.11.17;16:40:00;1;261;7262;0;2;0;2433;0;0;0;0;3;0;1461;0;0;0;0;4;0;1985;0;0;0;0;5;0;5283;2;0;0;0;0;0;6;0;3873;2;0;0;0;0;0;7;0;2603;0;0;0;0;8;0;2625;0;0;0;0;9;0;1375;0;0;0;0
29.11.17;16:35:00;1;426;7232;0;2;0;2433;0;0;0;0;3;0;1461;0;0;175;8;4;0;1985;0;0;0;0;5;0;5283;2;0;0;0;0;0;6;0;3873;2;0;0;0;0;0;7;0;2603;0;0;0;0;8;0;2625;0;0;0;0;9;0;1375;0;0;0;0
29.11.17;16:30:00;1;263;7193;0;2;0;2433;6;0;270;10;3;0;1461;6;0;299;13;4;0;1985;0;0;19;2;5;0;5283;2;0;0;0;0;0;6;0;3873;2;0;0;0;0;0;7;0;2603;0;0;0;0;8;0;2625;0;0;0;0;9;0;1375;0;0;0;0
29.11.17;16:25:00;1;295;7171;0;2;0;2433;6;0;303;10;3;0;1461;6;0;350;13;4;0;1985;2;0;85;10;5;0;5283;2;0;6;53;52;6;6;0;3873;1;0;0;0;0;2;7;0;2603;0;0;0;0;8;0;2625;0;0;0;0;9;0;1375;0;0;0;0
29.11.17;16:20:00;1;727;7147;0;2;0;2433;6;0;318;10;3;0;1461;6;0;382;13;4;0;1985;1;0;100;10;5;0;5283;1;0;2;200;198;14;6;0;3873;2;0;0;0;0;3;7;0;2603;0;0;0;0;8;0;2625;0;0;0;0;9;0;1375;0;0;0;0
29.11.17;16:15:00;1;306;7096;0;2;0;2433;6;0;327;10;3;0;1461;6;0;396;14;4;0;1985;1;0;107;10;5;0;5283;26;0;2;229;227;17;6;0;3873;1;1;0;29;29;6;7;0;2603;0;0;0;0;8;0;2625;0;0;0;0;9;0;1375;0;0;0;0
29.11.17;16:10:00;1;265;7071;0;2;0;2433;6;0;344;10;3;0;1461;3;1;402;14;4;0;1985;1;0;125;10;5;0;5283;8;0;0;326;324;21;6;0;3873;23;6;3;205;413;20;7;0;2603;0;0;41;2;8;0;2625;0;0;126;7;9;0;1375;2;0;265;10
29.11.17;16:05:00;1;400;7049;0;2;0;2433;6;0;353;11;3;0;1461;6;2;418;14;4;0;1985;1;0;136;11;5;0;5283;23;0;0;373;409;22;6;0;3873;23;6;3;437;240;21;7;0;2603;6;0;262;14;8;0;2625;6;0;267;14;9;0;1375;6;0;291;10
29.11.17;16:00:00;1;192;7008;0;2;0;2433;6;0;364;11;3;0;1461;6;1;426;14;4;0;1985;1;0;154;11;5;0;5283;23;0;0;390;422;22;6;0;3873;23;4;2;236;460;21;7;0;2603;6;0;289;14;8;0;2625;6;0;294;14;9;0;1375;6;0;311;10
29.11.17;15:55:00;1;192;6992;0;2;0;2433;6;0;380;11;3;0;1461;6;2;455;14;4;0;1985;1;0;184;11;5;0;5283;26;0;0;413;571;22;6;0;3873;23;7;3;181;548;22;7;0;2603;6;0;346;15;8;0;2625;6;0;352;14;9;0;1375;6;0;375;10
29.11.17;15:50:00;1;358;6976;0;2;0;2433;6;0;383;11;3;0;1461;6;1;464;14;4;0;1985;1;0;190;11;5;6;5283;1;0;1;405;630;22;6;0;3873;23;5;2;182;554;22;7;0;2603;6;0;357;15;8;0;2625;6;0;365;14;9;0;1375;6;0;390;10
29.11.17;15:45:00;1;193;6936;0;2;0;2433;6;0;399;11;3;1;1461;6;3;482;14;4;0;1985;1;0;205;12;5;24;5282;1;4;4;407;647;23;6;9;3873;23;5;7;488;552;23;7;0;2603;6;0;388;15;8;0;2625;6;0;389;14;9;0;1375;6;0;425;10
29.11.17;15:40:00;1;204;6920;0;2;2;2433;6;6;407;11;3;0;1461;6;0;517;14;4;0;1985;3;0;221;12;5;86;5280;4;21;23;381;609;24;6;58;3871;4;24;31;484;461;24;7;0;2603;6;1;444;15;8;4;2625;6;3;430;14;9;0;1375;6;1;491;11
29.11.17;15:35:00;1;223;6902;0;2;6;2433;3;14;392;12;3;3;1461;3;12;475;14;4;0;1985;3;0;215;12;5;88;5273;4;21;26;381;609;24;6;56;3867;4;28;35;484;461;24;7;0;2603;6;2;435;15;8;2;2625;6;2;451;15;9;4;1375;3;5;464;11
29.11.17;15:30:00;1;529;6881;0;2;3;2432;6;7;408;12;3;0;1461;6;5;511;14;4;0;1985;3;0;213;12;5;93;5266;4;28;27;381;609;24;6;63;3862;4;20;25;484;461;24;7;1;2603;6;2;453;15;8;0;2624;6;1;457;15;9;1;1375;6;2;503;11
29.11.17;15:25:00;1;234;6841;0;2;7;2432;6;12;415;12;3;5;1461;6;19;487;14;4;3;1985;3;4;199;12;5;127;5258;4;49;46;381;609;24;6;87;3856;4;43;53;484;461;24;7;0;2603;6;0;493;16;8;0;2624;6;0;495;15;9;0;1375;6;5;517;11
29.11.17;15:20:00;1;235;6822;0;2;32;2431;6;47;378;12;3;3;1460;6;8;527;15;4;7;1985;3;8;199;13;5;149;5247;4;57;49;381;609;24;6;101;3849;4;50;63;484;461;24;7;6;2603;3;15;460;16;8;7;2624;4;14;455;15;9;2;1375;6;9;506;11
29.11.17;15:15:00;1;469;6802;0;2;56;2429;4;84;367;12;3;4;1460;6;11;530;15;4;13;1985;3;14;198;13;5;175;5234;4;74;67;381;609;24;6;119;3841;4;56;70;484;461;24;7;16;2603;6;24;443;16;8;14;2624;3;23;453;15;9;1;1375;6;6;533;11
29.11.17;15:10:00;1;193;6758;0;2;81;2424;4;108;373;13;3;0;1460;6;0;566;15;4;31;1983;3;32;198;13;5;220;5219;4;105;89;381;609;24;6;150;3830;4;81;88;484;461;24;7;48;2601;4;81;420;16;8;54;2622;4;85;427;16;9;4;1374;6;8;549;11
29.11.17;15:05:00;1;216;6742;0;2;82;2417;4;109;370;13;3;17;1460;3;28;504;15;4;40;1981;3;41;198;13;5;225;5201;4;106;95;381;609;24;6;156;3818;4;80;87;484;461;24;7;54;2597;4;87;431;16;8;51;2618;4;89;439;16;9;5;1374;4;10;545;11
29.11.17;15:00:00;1;571;6724;0;2;94;2411;4;120;367;13;3;20;1458;6;30;532;15;4;47;1977;3;48;198;13;5;248;5182;4;113;102;381;609;24;6;166;3805;4;78;85;484;461;24;7;60;2593;4;90;440;16;8;59;2613;4;94;442;16;9;5;1373;6;9;550;11
29.11.17;14:55:00;1;252;6679;0;2;138;2403;4;167;377;13;3;69;1456;4;108;511;15;4;92;1974;3;96;215;13;5;336;5161;4;165;143;381;609;24;6;225;3791;4;109;120;484;461;24;7;100;2588;4;133;467;16;8;109;2609;4;138;444;16;9;10;1373;6;14;563;11
29.11.17;14:50:00;1;313;6658;0;2;110;2391;4;137;374;13;3;45;1451;4;69;499;15;4;69;1966;5;71;204;13;5;285;5133;4;136;116;381;609;24;6;194;3772;4;89;96;484;461;23;7;88;2579;4;126;434;16;8;98;2599;4;126;443;16;9;9;1372;6;12;562;12
29.11.17;14:45:00;1;348;6632;0;2;12;2382;4;17;414;12;3;3;1447;6;9;522;15;4;9;1960;3;9;200;13;5;149;5110;4;60;49;381;609;24;6;100;3756;4;46;57;484;461;23;7;13;2572;3;25;454;16;8;14;2591;3;25;454;16;9;3;1371;6;7;527;12
29.11.17;14:40:00;1;620;6589;0;2;68;2380;4;94;365;13;3;3;1447;6;9;536;15;4;23;1959;3;24;198;13;5;183;5098;4;80;68;381;609;24;6;121;3748;4;59;70;484;461;23;7;12;2570;6;24;461;16;8;14;2590;6;22;466;16;9;0;1371;6;4;535;12
29.11.17;14:35:00;1;451;6539;0;2;129;2375;4;159;368;13;3;72;1446;4;107;479;16;4;79;1957;3;83;204;13;5;295;5082;4;137;121;385;609;24;6;195;3737;4;96;103;484;461;23;7;82;2569;4;113;420;16;8;78;2588;4;114;438;16;9;11;1371;4;17;528;12
29.11.17;14:30:00;1;518;6502;0;2;215;2364;4;246;381;13;3;126;1440;4;166;511;16;4;161;1950;5;167;226;13;5;456;5055;4;221;192;403;609;24;6;298;3720;4;166;167;484;461;23;7;184;2562;4;215;466;16;8;186;2582;4;214;471;16;9;100;1370;4;127;492;12
29.11.17;14:25:00;1;910;6460;0;2;199;2346;4;231;373;13;3;114;1430;4;156;515;16;4;148;1937;5;154;226;13;5;432;5017;4;213;182;381;609;24;6;293;3695;4;141;144;484;461;23;7;187;2547;4;217;464;16;8;181;2566;4;219;472;16;9;104;1362;4;129;493;12
29.11.17;14:20:00;1;512;6395;0;2;194;2329;4;224;377;13;3;108;1420;4;149;517;16;4;144;1925;5;150;226;13;5;430;4981;4;207;183;381;609;24;6;286;3671;4;153;157;484;461;23;7;175;2531;4;211;457;16;8;182;2551;4;214;459;16;9;97;1353;4;122;483;12
29.11.17;14:15:00;1;516;6353;0;2;156;2313;4;186;376;13;3;91;1411;4;128;490;16;4;104;1913;5;108;216;13;5;371;4945;4;183;159;381;609;24;6;250;3647;4;114;125;484;461;23;7;157;2517;4;183;463;16;8;157;2536;4;192;460;16;9;81;1345;4;104;428;12
29.11.17;14:10:00;1;626;6311;0;2;138;2300;4;168;377;13;3;78;1403;4;115;487;16;4;85;1904;3;88;199;13;5;323;4915;4;155;132;381;609;24;6;221;3626;4;115;125;484;461;23;7;114;2504;4;149;399;16;8;118;2523;4;149;401;16;9;59;1339;4;81;408;12
29.11.17;14:05:00;1;467;6248;0;2;145;2289;4;177;389;13;3;83;1397;4;120;489;16;4;98;1897;3;102;221;13;5;340;4888;4;169;148;381;609;24;6;232;3608;4;136;151;484;461;23;7;125;2494;4;153;406;17;8;121;2513;4;156;417;16;9;26;1334;3;35;538;12
29.11.17;14:00:00;1;468;6209;0;2;170;2277;4;200;378;13;3;99;1390;4;137;493;16;4;119;1889;5;124;224;13;5;385;4860;4;191;167;381;609;24;6;259;3588;4;115;121;484;461;23;7;146;2484;4;176;426;17;8;145;2503;4;181;438;16;9;80;1331;4;107;481;13
29.11.17;13:55:00;1;662;6170;0;2;169;2262;4;199;376;14;3;98;1382;4;135;497;16;4;128;1879;5;134;225;13;5;409;4827;4;200;176;381;609;24;6;277;3567;4;160;166;484;461;23;7;180;2472;4;204;457;17;8;170;2491;4;205;464;16;9;94;1324;4;119;485;13
29.11.17;13:50:00;1;427;6105;0;2;167;2248;4;198;388;14;3;97;1374;4;137;491;16;4;119;1868;5;124;225;13;5;409;4794;4;201;176;394;609;24;6;269;3544;4;122;130;484;461;23;7;163;2457;4;191;429;17;8;151;2477;4;189;465;16;9;85;1316;4;112;495;13
29.11.17;13:45:00;1;399;6069;0;2;157;2235;4;188;386;14;3;91;1365;4;129;492;16;4;119;1858;5;124;222;13;5;398;4759;4;199;172;389;609;24;6;271;3521;4;131;137;484;461;23;7;175;2443;4;207;456;17;8;166;2464;4;204;477;16;9;95;1309;4;121;477;13
29.11.17;13:40:00;1;890;6036;0;2;137;2221;4;167;378;14;3;78;1358;4;113;470;16;4;88;1848;3;92;203;13;5;351;4727;4;178;153;381;609;24;6;240;3499;4;113;116;484;461;23;7;129;2429;4;168;453;17;8;135;2450;4;170;460;16;9;71;1301;4;96;436;13
29.11.17;13:35:00;1;404;5977;0;2;165;2210;4;194;378;14;3;93;1351;4;132;495;16;4;114;1841;5;119;224;13;5;395;4697;4;196;171;396;609;24;6;270;3479;4;114;130;484;496;23;7;160;2418;4;193;437;17;8;163;2439;4;193;445;16;9;86;1295;4;113;485;13